sat.trackr.live / text

‹ back to catalog

ONEWEB-0539

NORAD 54644 · 2022-166C

PAYLOAD ACTIVE UNKNOWN

§ Identity

Operator
Country
UK
Launch date
2022-12-08
Launch site
AFETR
Launch vehicle
Mass (kg)
RCS (m²)

Purposes: comms

External: N2YO · Heavens-Above · Gunter

§ Orbital elements

Epoch: 2026-09-19T16:25:36.364224Z

Period
108.94 min
Inclination
87.9285°
Eccentricity
0.0002282
Mean motion
13.21827117 rev/d
Perigee alt
1,176.0 km
Apogee alt
1,179.5 km
Semi-major
7,555.9 km
B*
3.8109e-6
RAAN
225.1665°
Arg perigee
81.6157°
Mean anomaly
278.5235°
Rev number
18,402

§ Raw data

ONEWEB-05391 54644U 22166C   26262.68444866  .00000015  00000+0  38109-5 0  99952 54644  87.9285 225.1665 0002282  81.6157 278.5235 13.21827117184023

JSON: /api/v1/satellites/54644 · /tle

For live sub-satellite position, see the globe view (requires WebGL).

§ Visibility from observer

Set your observer location to see the next 7 days of passes ≥ 10°. The values pass through the URL so the page stays shareable.

No JS? Fill the form by hand. The geolocation button needs JavaScript.